User: anonymous   Login
Location: Clatteringshaws Loch
(55.0508°N, 4.2860°W)
Time: 17:59:55
(UTC+00:00)
Language:

ALOS - Orbit

View from above orbital plane
View from above orbital plane
View from above satellite
View from above satellite

Ground track
Ground track

The orbit data is extracted from the following two-line orbital elements,

1 28931U 06002A   14353.24783868  .00001751  00000-0  36164-3 0  1352
2 28931 097.9606 044.6365 0000705 040.5595 319.5660 14.61547874474350
Epoch (UTC): 19 December 2014 05:56:53
Eccentricity: 0.0000705
inclination: 97.9606°
perigee height: 687 km
apogee height: 688 km
right ascension of ascending node: 44.6365°
argument of perigee: 40.5595°
revolutions per day: 14.61547874
mean anomaly at epoch: 319.5660°
orbit number at epoch: 47435

The dashed part of the orbit path shows where the satellite is in the earth's shadow,  

DLR